Погода в Толедо

Филиппины     10°23′30″N   123°39′00″E
темп.,
°C
ветер,
м/с
пор.,
м/с
влажн.,
%
обл.,
%
осадки,
мм/ч
давл.,
гПа
погр.,
м
20 января, чт
чт2023:00+23всв229167 0.0 101082
02:00+22всв229316 0.1 100972
05:00+23вюв2291100 0.1 100963
08:00+25всв1285100 0.1 1010354
11:00+28св1366100 0.1 10101026
14:00+28ссз1264100 0.1 10081066
17:00+27св1175100 0.1 100834
20:00+24в2278100 0.1 101141
21 января, пт
пт2123:00+23в2286100 0.0 101162
02:00+23в22915 0.0 100970
05:00+22в12923 0.0 101075
08:00+25св22837 0.0 1012403
11:00+28св346722 0.1 10111014
14:00+28всв34645 0.3 10091002
17:00+27св237497 0.3 1009162
20:00+24всв228499 0.4 101146
22 января, сб
сб2223:00+23в2289100 0.1 101169
02:00+23в23904 0.1 101074
05:00+22св12915 0.1 101092
08:00+25св128298 0.2 1012308
11:00+27всв2469100 0.2 1012855
14:00+28всв2368100 0.4 1009861
17:00+25в348191 0.6 1009263
20:00+23в3488100 1.0 1011115
23 января, вс
вс2323:00+23в349249 0.2 1011132
02:00+23всв129398 0.3 101098
05:00+22ссв2394100 0.1 1009126
08:00+24св4688100 0.1 1011480
11:00+28св3467100 0.0 1010822
14:00+28ссв2467100 0.0 1007968
17:00+26с3381100 0.1 1008179
20:00+24ссв2388100 0.1 1010129
24 января, пн
пн2423:00+23ссв2488100 0.0 1009162
02:00+24всв2290100 0.5 1008161
05:00+23ссв229495 1.1 100791
08:00+25ссв3488100 1.9 1009352
11:00+26ссв4684100 3.0 1009693
14:00+27с4576100 4.5 1006804
17:00+25с4591100 2.1 1006295
20:00+24ссв3392100 4.9 1008121